ESBJERG current weather conditions

sailwx.info

Wind from 110 at 11 knots

Air temperature 4.0° C
Visibility: greater than 5.4 NM
Dewpoint 1.0° C

Last reported at 2019-Dec-13 12:50 UTC.
Time now 2019-Dec-13 13:49 UTC

Location: N 55°31' E 008°33'.
View on Google Maps.

See reports from other nearby stations

  
Tides and Currents Weather Stations Pressure Air Temp Water Temp Dewpoint Dewpoint Depression Visibility Wind Speed Wind Dir Waves Ship Positions
date/time (UTC)wind fromknots sea level pressurealtimeterstation pressurevisibilityair tempwater tempwave heightnotes
2019-Dec-13 12:50 110 11 5.4 4.0
2019-Dec-13 12:20 110 11 5.4 4.0
2019-Dec-13 11:50 110 11 5.4 4.0
2019-Dec-13 11:20 110 13 5.4 4.0
2019-Dec-13 10:50 100 12 gusting 21 5.4 4.0
2019-Dec-13 10:20 110 9 5.4 3.0
2019-Dec-13 09:50 110 12 5.4 3.0
2019-Dec-13 09:20 110 11 5.4 3.0
2019-Dec-13 08:50 110 9 5.4 2.0
2019-Dec-13 08:20 100 9 5.4 2.0
2019-Dec-13 07:50 100 11 5.4 2.0
2019-Dec-13 07:20 110 13 5.4 2.0
2019-Dec-13 06:50 110 11 5.4 2.0
2019-Dec-13 06:20 110 11 5.4 2.0
2019-Dec-13 05:50 110 11 5.4 2.0
2019-Dec-13 05:20 110 11 5.4 2.0
2019-Dec-13 04:50 110 9 gusting 20 5.4 2.0
2019-Dec-13 04:20 120 12 5.4 2.0
2019-Dec-13 03:50 110 12 5.4 2.0
2019-Dec-13 03:20 110 12 gusting 21 5.4 2.0
2019-Dec-13 02:50 120 11 5.4 2.0
2019-Dec-13 02:20 110 11 5.4 2.0
2019-Dec-13 01:50 120 11 5.4 1.0
2019-Dec-13 01:20 110 12 4.3 1.0
2019-Dec-13 00:50 120 9 gusting 20 3.8 1.0
2019-Dec-13 00:20 120 9 3.2 1.0
2019-Dec-12 23:50 120 9 2.4 1.0 Mist.
2019-Dec-12 23:20 120 7 2.3 1.0 Mist.
2019-Dec-12 22:50 120 6 2.7 1.0
2019-Dec-12 22:20 120 6 3.2 1.0
2019-Dec-12 21:50 120 6 3.2 1.0
2019-Dec-12 21:20 130 7 3.8 2.0
2019-Dec-12 20:50 140 7 4.3 2.0
2019-Dec-12 20:20 140 7 5.4 2.0
2019-Dec-12 19:50 140 6 5.4 2.0
2019-Dec-12 19:20 150 6 5.4 3.0
2019-Dec-12 18:50 150 7 5.4 3.0
2019-Dec-12 18:20 140 6 5.4 3.0
2019-Dec-12 17:50 140 5 5.4 3.0
2019-Dec-12 17:20 170 8 5.4 4.0
2019-Dec-12 16:50 180 8 5.4 4.0
2019-Dec-12 16:20 150 6 5.4 4.0
2019-Dec-12 15:50 170 4 5.4 3.0
2019-Dec-12 15:20 170 2 5.4 4.0
2019-Dec-12 14:50 190 5 5.4 5.0
2019-Dec-12 14:20 190 5 5.4 6.0
2019-Dec-12 13:50 180 2 5.4 6.0
2019-Dec-12 13:20 170 4 5.4 6.0
2019-Dec-12 12:50 170 5 5.4 6.0
2019-Dec-12 12:20 180 4 5.4 6.0
2019-Dec-12 11:50 170 4 5.4 6.0
2019-Dec-12 11:20 210 6 gusting 17 5.4 5.0
2019-Dec-12 10:50 180 6 5.4 6.0
2019-Dec-12 10:20 190 4 5.4 5.0
2019-Dec-12 09:50 160 8 2.2 5.0 Light rain.
2019-Dec-12 09:20 160 8 2.2 5.0 Light rain.
2019-Dec-12 08:50 150 11 2.7 5.0
2019-Dec-12 08:20 150 9 2.7 4.0
2019-Dec-12 07:50 150 7 3.2 4.0
2019-Dec-12 07:20 150 6 4.9 4.0
2019-Dec-12 06:50 160 6 4.3 4.0
2019-Dec-12 06:20 160 6 4.3 4.0
2019-Dec-12 05:50 160 6 4.9 4.0
2019-Dec-12 05:20 160 5 3.2 4.0
2019-Dec-12 04:50 140 5 1.6 4.0 Mist.
2019-Dec-12 04:20 140 4 1.1 3.0
2019-Dec-12 03:50 140 4 0.4 3.0 Fog.
2019-Dec-12 03:20 150 5 1.0 3.0 Mist.
2019-Dec-12 02:50 150 5 1.4 4.0 Mist.
2019-Dec-12 02:20 140 5 1.1 4.0 Mist.
2019-Dec-12 01:50 140 5 1.3 4.0 Mist.
2019-Dec-12 01:20 140 4 1.3 4.0 Mist.
2019-Dec-12 00:50 140 5 0.2 4.0 Fog.
2019-Dec-12 00:20 140 5 0.2 4.0 Fog.
2019-Dec-11 23:50 140 6 0.5 4.0 Mist.
2019-Dec-11 23:20 150 5 0.9 4.0 Mist.
2019-Dec-11 22:50 130 4 1.6 4.0 Mist.
2019-Dec-11 22:20 140 4 2.3 5.0 Mist.
2019-Dec-11 21:50 150 5 2.3 5.0 Mist.
2019-Dec-11 21:20 160 6 1.8 5.0 Mist.
2019-Dec-11 20:50 140 5 1.8 5.0 Mist.
2019-Dec-11 20:20 160 6 2.7 5.0
2019-Dec-11 19:50 150 5 4.3 5.0
2019-Dec-11 19:20 150 5 4.3 5.0
2019-Dec-11 18:50 170 6 5.4 5.0
2019-Dec-11 18:20 170 6 5.4 5.0
2019-Dec-11 17:50 170 6 4.3 5.0
2019-Dec-11 17:20 170 5 4.3 6.0
2019-Dec-11 16:50 160 4 5.4 5.0
2019-Dec-11 16:20 170 2 5.4 5.0
2019-Dec-11 15:50 190 4 5.4 6.0
2019-Dec-11 15:20 180 4 5.4 5.0
2019-Dec-11 14:50 190 4 5.4 7.0
2019-Dec-11 14:20 190 5 5.4 7.0
2019-Dec-11 13:50 200 6 5.4 7.0
2019-Dec-11 13:20 210 6 5.4 8.0